User: anonymous   Login
Location: Tierra del Sol
(32.6128°N, 116.3319°W)
Time: 10:20:31
(UTC-07:00)
Language:

N. Korean satellite - Orbit

View from above orbital plane
View from above orbital plane
View from above satellite
View from above satellite

Ground track
Ground track

The orbit data is extracted from the following two-line orbital elements,

1 39026U 12072A   17295.90522254 +.00002001 +00000-0 +78794-4 0  9997
2 39026 097.2193 309.3874 0041935 084.9476 275.6548 15.25945596269406
Epoch (UTC): 22 October 2017 21:43:31
Eccentricity: 0.0041935
inclination: 97.2193°
perigee height: 459 km
apogee height: 517 km
right ascension of ascending node: 309.3874°
argument of perigee: 84.9476°
revolutions per day: 15.25945596
mean anomaly at epoch: 275.6548°
orbit number at epoch: 26940

The dashed part of the orbit path shows where the satellite is in the earth's shadow,  

DLR